This demonstration page uses our WeatherBlox Daily Observations layout. Learn more.

38.88101, -77.10428

Hourly Observations for December 25, 2018

Temp ( °F °C ) Dew Point ( °F °C ) Humidity (%) Winds ( mph kmh ) Pressure ( in mb ) Visibility ( mi km ) Precip ( " mm )
12:52 am 00:52 Mostly Cloudy 39 3.9 21 -6.1 48 48 NNW 8 13 30.28 1025 10 16.0934 0 0
1:52 am 01:52 Mostly Cloudy 38 3.3 21 -6.1 51 51 N 5 7 30.29 1026 10 16.0934 0 0
2:52 am 02:52 Mostly Cloudy 37 2.8 21 -6.1 52 52 N 10 17 30.3 1026 10 16.0934 0 0
4:52 am 04:52 Mostly Cloudy 36 2.2 19 -7.2 50 50 N 9 15 30.32 1027 10 16.0934 0 0
5:52 am 05:52 Cloudy 37 2.8 19 -7.2 48 48 N 10 17 30.35 1028 10 16.0934 0 0
6:52 am 06:52 Partly Cloudy 36 2.2 19 -7.2 50 50 NNW 5 7 30.36 1028 10 16.0934 0 0
7:52 am 07:52 Partly Cloudy 36 2.2 19 -7.2 50 50 NNW 8 13 30.37 1028 10 16.0934 0 0
8:52 am 08:52 Mostly Cloudy 39 3.9 19 -7.2 45 45 NW 7 11 30.39 1029 10 16.0934 0 0
9:52 am 09:52 Mostly Cloudy 40 4.4 20 -6.7 45 45 NNW 10 17 30.4 1030 10 16.0934 0 0
10:52 am 10:52 Cloudy 41 5 20 -6.7 43 43 NW 8 13 30.39 1029 10 16.0934 0 0
11:52 am 11:52 Cloudy 43 6.1 22 -5.6 43 43 WNW 9 15 30.35 1028 10 16.0934 0 0
12:52 pm 12:52 Cloudy 43 6.1 22 -5.6 43 43 W 10 17 30.35 1028 10 16.0934 0 0
1:52 pm 13:52 Cloudy 43 6.1 22 -5.6 43 43 NW 10 17 30.35 1028 10 16.0934 0 0
2:52 pm 14:52 Mostly Cloudy 42 5.6 22 -5.6 45 45 N 7 11 30.35 1028 10 16.0934 0 0
3:52 pm 15:52 Cloudy 42 5.6 21 -6.1 43 43 W 6 9 30.37 1028 10 16.0934 0 0
4:52 pm 16:52 Mostly Cloudy 40 4.4 22 -5.6 49 49 N 8 13 30.37 1028 10 16.0934 0 0
5:52 pm 17:52 Mostly Cloudy 37 2.8 22 -5.6 54 54 N 7 11 30.37 1029 10 16.0934 0 0
6:52 pm 18:52 Mostly Clear 37 2.8 22 -5.6 54 54 NNW 5 7 30.39 1029 10 16.0934 0 0
7:52 pm 19:52 Mostly Clear 38 3.3 22 -5.6 52 52 NNW 6 9 30.4 1029 10 16.0934 0 0
8:52 pm 20:52 Clear 36 2.2 23 -5 59 59 NNW 7 11 30.41 1030 10 16.0934 0 0
9:52 pm 21:52 Clear 36 2.2 23 -5 59 59 NNW 5 7 30.42 1030 10 16.0934 0 0
10:52 pm 22:52 Clear 36 2.2 22 -5.6 57 57 Calm 30.43 1031 10 16.0934 0 0
11:52 pm 23:52 Clear 34 1.1 23 -5 64 64 Calm 30.42 1030 10 16.0934 0 0

Powered by AerisWeather